Chester, CT

10:28 AM EST on November 22, 2017 (GMT -0500)
Chester

Weather History for KSNC - November, 2013

Change the Weather History Date:

Wednesday, November 20, 2013

  Actual Average (KHVN) Record (KHVN)
Temperature  
Mean Temperature 36 °F -  
Max Temperature 41 °F 49 °F 68 °F (1991)
Min Temperature 30 °F 35 °F 18 °F (1986)
Degree Days  
Heating Degree Days 30    
Moisture  
Dew Point 14 °F    
Average Humidity 45    
Maximum Humidity 55    
Minimum Humidity 31    
Precipitation  
Precipitation 0.00 in - - ()
Sea Level Pressure  
Sea Level Pressure 30.50 in    
Wind  
Wind Speed 13 mph (NNW)    
Max Wind Speed 22 mph    
Max Gust Speed 32 mph    
Visibility 10 miles    
Events      
Averages and records for this station are not official NWS values.
T = Trace of Precipitation, MM = Missing Value Source: NWS Daily Summary

Daily Weather History Graph

Daily Weather History Graph

Search for Another Location

Airport or City:

Trip Planner

Search our weather history database for the weather conditions in past years. The results will help you decide how hot, cold, wet, or windy it might be!

Date:

Astronomy

Nov. 20, 2013 Rise Set
Actual Time 6:44 AM EST 4:26 PM EST
Civil Twilight 6:14 AM EST 4:56 PM EST
Nautical Twilight 5:40 AM EST 5:30 PM EST
Astronomical Twilight 5:07 AM EST 6:03 PM EST
Moon 7:06 PM EST (11/20) 9:07 AM EST (11/20)
Length of Visible Light 10h 42m
Length of Day
9h 41m
Waning Gibbous, 91% of the Moon is Illuminated
Nov 20
Waning Gibbous
Nov 25
Last Quarter
Dec 2
New
Dec 9
First Quarter
Dec 17
Full

Hourly Weather History & Observations

Time (EST) Temp. Windchill Dew Point Humidity Pressure Visibility Wind Dir Wind Speed Gust Speed Precip Events Conditions
12:15 AM 32.0 °F 20.5 °F 17.6 °F 55% 30.29 in 10.0 mi NNW 18.4 mph 32.2 mph N/A   Clear
12:35 AM 32.0 °F 19.5 °F 17.6 °F 55% 30.29 in 10.0 mi NNW 21.9 mph 29.9 mph N/A   Clear
12:55 AM 32.0 °F 20.1 °F 17.6 °F 55% 30.29 in 10.0 mi NNW 19.6 mph 26.5 mph N/A   Clear
1:15 AM 32.0 °F 20.1 °F 17.6 °F 55% 30.30 in 10.0 mi NNW 19.6 mph 29.9 mph N/A   Clear
1:35 AM 32.0 °F 19.5 °F 17.6 °F 55% 30.30 in 10.0 mi North 21.9 mph 27.6 mph N/A   Clear
1:55 AM 32.0 °F 20.5 °F 17.6 °F 55% 30.32 in 10.0 mi North 18.4 mph 28.8 mph N/A   Clear
2:15 AM 32.0 °F 20.1 °F 17.6 °F 55% 30.32 in 10.0 mi NNW 19.6 mph 28.8 mph N/A   Clear
2:35 AM 32.0 °F 20.8 °F 17.6 °F 55% 30.33 in 10.0 mi North 17.3 mph 29.9 mph N/A   Clear
2:55 AM 32.0 °F 22.1 °F 17.6 °F 55% 30.35 in 10.0 mi North 13.8 mph 29.9 mph N/A   Clear
3:15 AM 32.0 °F 21.2 °F 17.6 °F 55% 30.35 in 10.0 mi North 16.1 mph 25.3 mph N/A   Clear
3:35 AM 32.0 °F 21.2 °F 17.6 °F 55% 30.35 in 10.0 mi North 16.1 mph 26.5 mph N/A   Clear
3:55 AM 32.0 °F 20.1 °F 17.6 °F 55% 30.36 in 10.0 mi North 19.6 mph 25.3 mph N/A   Clear
4:15 AM 32.0 °F 21.6 °F 17.6 °F 55% 30.38 in 10.0 mi North 15.0 mph 23.0 mph N/A   Clear
4:35 AM 32.0 °F 20.8 °F 15.8 °F 51% 30.39 in 10.0 mi North 17.3 mph 23.0 mph N/A   Clear
4:55 AM 30.2 °F 18.1 °F 15.8 °F 55% 30.39 in 10.0 mi North 18.4 mph 25.3 mph N/A   Clear
5:15 AM 30.2 °F 19.8 °F 15.8 °F 55% 30.41 in 10.0 mi NNW 13.8 mph 21.9 mph N/A   Clear
5:35 AM 30.2 °F 19.3 °F 15.8 °F 55% 30.42 in 10.0 mi North 15.0 mph 20.7 mph N/A   Clear
5:55 AM 30.2 °F 20.8 °F 15.8 °F 55% 30.44 in 10.0 mi North 11.5 mph 20.7 mph N/A   Clear
6:15 AM 30.2 °F 20.8 °F 15.8 °F 55% 30.45 in 10.0 mi NNW 11.5 mph 19.6 mph N/A   Clear
6:35 AM 30.2 °F 20.2 °F 15.8 °F 55% 30.46 in 10.0 mi North 12.7 mph 19.6 mph N/A   Clear
6:55 AM 30.2 °F 21.3 °F 15.8 °F 55% 30.48 in 10.0 mi NNW 10.4 mph 17.3 mph N/A   Clear
7:15 AM 30.2 °F 21.9 °F 14.0 °F 51% 30.49 in 10.0 mi North 9.2 mph - N/A   Clear
7:35 AM 30.2 °F 19.8 °F 14.0 °F 51% 30.49 in 10.0 mi North 13.8 mph 19.6 mph N/A   Clear
7:55 AM 32.0 °F 22.1 °F 14.0 °F 48% 30.49 in 10.0 mi North 13.8 mph 23.0 mph N/A   Clear
8:15 AM 32.0 °F 22.1 °F 14.0 °F 48% 30.51 in 10.0 mi NNE 13.8 mph 18.4 mph N/A   Clear
8:35 AM 32.0 °F 21.6 °F 14.0 °F 48% 30.51 in 10.0 mi North 15.0 mph 24.2 mph N/A   Clear
8:55 AM 32.0 °F 21.6 °F 14.0 °F 48% 30.52 in 10.0 mi North 15.0 mph 23.0 mph N/A   Clear
9:15 AM 32.0 °F 22.1 °F 14.0 °F 48% 30.53 in 10.0 mi North 13.8 mph 21.9 mph N/A   Clear
9:35 AM 33.8 °F 24.8 °F 14.0 °F 44% 30.53 in 10.0 mi North 12.7 mph 18.4 mph N/A   Clear
9:55 AM 33.8 °F 26.4 °F 14.0 °F 44% 30.54 in 10.0 mi North 9.2 mph 20.7 mph N/A   Clear
10:15 AM 33.8 °F 25.8 °F 14.0 °F 44% 30.55 in 10.0 mi NE 10.4 mph 17.3 mph N/A   Clear
10:35 AM 35.6 °F 28.0 °F 12.2 °F 38% 30.54 in 10.0 mi North 10.4 mph - N/A   Clear
10:55 AM 35.6 °F 26.6 °F 14.0 °F 41% 30.53 in 10.0 mi North 13.8 mph 17.3 mph N/A   Clear
11:15 AM 37.4 °F 30.8 °F 14.0 °F 38% 30.53 in 10.0 mi North 9.2 mph - N/A   Clear
11:35 AM 37.4 °F 30.3 °F 14.0 °F 38% 30.53 in 10.0 mi North 10.4 mph - N/A   Clear
11:55 AM 37.4 °F 29.3 °F 14.0 °F 38% 30.53 in 10.0 mi North 12.7 mph 17.3 mph N/A   Clear
12:15 PM 39.2 °F 33.6 °F 14.0 °F 36% 30.53 in 10.0 mi North 8.1 mph 16.1 mph N/A   Clear
12:35 PM 39.2 °F 33.6 °F 12.2 °F 33% 30.53 in 10.0 mi North 8.1 mph - N/A   Clear
12:55 PM 39.2 °F 32.5 °F 12.2 °F 33% 30.52 in 10.0 mi NNE 10.4 mph - N/A   Clear
1:15 PM 41.0 °F 35.8 °F 12.2 °F 31% 30.52 in 10.0 mi NNE 8.1 mph - N/A   Clear
1:35 PM 41.0 °F 35.8 °F 12.2 °F 31% 30.52 in 10.0 mi NNE 8.1 mph - N/A   Clear
1:55 PM 39.2 °F 34.2 °F 12.2 °F 33% 30.52 in 10.0 mi NNE 6.9 mph - N/A   Clear
2:15 PM 39.2 °F 33.6 °F 12.2 °F 33% 30.52 in 10.0 mi North 8.1 mph 18.4 mph N/A   Clear
2:35 PM 39.2 °F 35.0 °F 12.2 °F 33% 30.53 in 10.0 mi North 5.8 mph - N/A   Clear
2:55 PM 39.2 °F 33.6 °F 12.2 °F 33% 30.53 in 10.0 mi NNE 8.1 mph - N/A   Clear
3:15 PM 39.2 °F 35.9 °F 12.2 °F 33% 30.54 in 10.0 mi North 4.6 mph - N/A   Clear
3:35 PM 39.2 °F 35.9 °F 14.0 °F 36% 30.54 in 10.0 mi NW 4.6 mph - N/A   Clear
3:55 PM 37.4 °F 34.9 °F 14.0 °F 38% 30.55 in 10.0 mi WNW 3.5 mph - N/A   Clear
4:15 PM 37.4 °F 34.9 °F 14.0 °F 38% 30.55 in 10.0 mi NW 3.5 mph - N/A   Clear
4:35 PM 37.4 °F - 14.0 °F 38% 30.56 in 10.0 mi Calm Calm - N/A   Clear
4:55 PM 35.6 °F 32.8 °F 14.0 °F 41% 30.56 in 10.0 mi NNW 3.5 mph - N/A   Clear
5:15 PM 33.8 °F 30.8 °F 14.0 °F 44% 30.56 in 10.0 mi NNW 3.5 mph - N/A   Clear
5:35 PM 33.8 °F 29.6 °F 14.0 °F 44% 30.56 in 10.0 mi NNW 4.6 mph - N/A   Clear
5:55 PM 33.8 °F 29.6 °F 14.0 °F 44% 30.57 in 10.0 mi NW 4.6 mph - N/A   Clear
6:15 PM 32.0 °F 27.5 °F 14.0 °F 48% 30.57 in 10.0 mi NW 4.6 mph - N/A   Clear
6:35 PM 32.0 °F 28.7 °F 14.0 °F 48% 30.57 in 10.0 mi NW 3.5 mph - N/A   Clear
6:55 PM 32.0 °F 28.7 °F 14.0 °F 48% 30.58 in 10.0 mi NW 3.5 mph - N/A   Clear
7:15 PM 32.0 °F 27.5 °F 12.2 °F 44% 30.59 in 10.0 mi NW 4.6 mph - N/A   Clear
7:35 PM 32.0 °F 28.7 °F 12.2 °F 44% 30.59 in 10.0 mi NW 3.5 mph - N/A   Clear
7:55 PM 32.0 °F 28.7 °F 14.0 °F 48% 30.59 in 10.0 mi NW 3.5 mph - N/A   Clear
8:15 PM 33.8 °F 29.6 °F 12.2 °F 41% 30.59 in 10.0 mi North 4.6 mph - N/A   Clear
8:35 PM 32.0 °F 28.7 °F 12.2 °F 44% 30.59 in 10.0 mi NNW 3.5 mph - N/A   Clear
8:55 PM 32.0 °F 28.7 °F 12.2 °F 44% 30.59 in 10.0 mi North 3.5 mph - N/A   Clear
9:15 PM 32.0 °F - 12.2 °F 44% 30.60 in 10.0 mi Calm Calm - N/A   Clear
9:35 PM 32.0 °F 27.5 °F 12.2 °F 44% 30.60 in 10.0 mi North 4.6 mph - N/A   Clear
9:55 PM 32.0 °F 28.7 °F 12.2 °F 44% 30.60 in 10.0 mi North 3.5 mph - N/A   Clear
10:15 PM 32.0 °F 28.7 °F 12.2 °F 44% 30.60 in 10.0 mi NW 3.5 mph - N/A   Clear
10:35 PM 32.0 °F 28.7 °F 12.2 °F 44% 30.60 in 10.0 mi North 3.5 mph - N/A   Clear
10:55 PM 32.0 °F 28.7 °F 12.2 °F 44% 30.61 in 10.0 mi NNW 3.5 mph - N/A   Clear
11:15 PM 32.0 °F 27.5 °F 12.2 °F 44% 30.61 in 10.0 mi NNW 4.6 mph - N/A   Clear
11:35 PM 32.0 °F 27.5 °F 12.2 °F 44% 30.61 in 10.0 mi North 4.6 mph - N/A   Clear
11:55 PM 32.0 °F 27.5 °F 12.2 °F 44% 30.62 in 10.0 mi NNW 4.6 mph - N/A   Clear